Year,Month,Day,Hour,Minute,Value (Times are PST for temperature in C)
2015,08,12,00,00,19.70
2015,08,12,00,01,19.60
2015,08,12,00,02,19.60
2015,08,12,00,03,19.60
2015,08,12,00,04,19.60
2015,08,12,00,05,19.50
2015,08,12,00,06,19.50
2015,08,12,00,07,19.50
2015,08,12,00,08,19.50
2015,08,12,00,09,19.50
2015,08,12,00,10,19.50
2015,08,12,00,11,19.50
2015,08,12,00,12,19.50
2015,08,12,00,13,19.40
2015,08,12,00,14,19.40
2015,08,12,00,15,19.40
2015,08,12,00,16,19.40
2015,08,12,00,17,19.30
2015,08,12,00,18,19.30
2015,08,12,00,19,19.30
2015,08,12,00,20,19.30
2015,08,12,00,21,19.20
2015,08,12,00,22,19.20
2015,08,12,00,23,19.20
2015,08,12,00,24,19.10
2015,08,12,00,25,19.10
2015,08,12,00,26,19.10
2015,08,12,00,27,19.10
2015,08,12,00,28,19.00
2015,08,12,00,29,19.00
2015,08,12,00,30,19.00
2015,08,12,00,31,19.00
2015,08,12,00,32,19.00
2015,08,12,00,33,19.00
2015,08,12,00,34,19.00
2015,08,12,00,35,18.90
2015,08,12,00,36,18.90
2015,08,12,00,37,18.90
2015,08,12,00,38,18.90
2015,08,12,00,39,18.90
2015,08,12,00,40,18.80
2015,08,12,00,41,18.80
2015,08,12,00,42,18.80
2015,08,12,00,43,18.80
2015,08,12,00,44,18.70
2015,08,12,00,45,18.70
2015,08,12,00,46,18.70
2015,08,12,00,47,18.60
2015,08,12,00,48,18.60
2015,08,12,00,49,18.60
2015,08,12,00,50,18.60
2015,08,12,00,51,18.60
2015,08,12,00,52,18.50
2015,08,12,00,53,18.50
2015,08,12,00,54,18.40
2015,08,12,00,55,18.40
2015,08,12,00,56,18.40
2015,08,12,00,57,18.40
2015,08,12,00,58,18.30
2015,08,12,00,59,18.30
2015,08,12,01,00,18.30
2015,08,12,01,01,18.30
2015,08,12,01,02,18.30
2015,08,12,01,03,18.30
2015,08,12,01,04,18.30
2015,08,12,01,05,18.30
2015,08,12,01,06,18.30
2015,08,12,01,07,18.30
2015,08,12,01,08,18.30
2015,08,12,01,09,18.20
2015,08,12,01,10,18.20
2015,08,12,01,11,18.20
2015,08,12,01,12,18.20
2015,08,12,01,13,18.20
2015,08,12,01,14,18.10
2015,08,12,01,15,18.10
2015,08,12,01,16,18.10
2015,08,12,01,17,18.10
2015,08,12,01,18,18.00
2015,08,12,01,19,18.00
2015,08,12,01,20,17.90
2015,08,12,01,21,17.90
2015,08,12,01,22,17.90
2015,08,12,01,23,17.90
2015,08,12,01,24,17.90
2015,08,12,01,25,17.80
2015,08,12,01,26,17.80
2015,08,12,01,27,17.80
2015,08,12,01,28,17.80
2015,08,12,01,29,17.80
2015,08,12,01,30,17.80
2015,08,12,01,31,17.80
2015,08,12,01,32,17.80
2015,08,12,01,33,17.80
2015,08,12,01,34,17.80
2015,08,12,01,35,17.80
2015,08,12,01,36,17.70
2015,08,12,01,37,17.70
2015,08,12,01,38,17.70
2015,08,12,01,39,17.70
2015,08,12,01,40,17.70
2015,08,12,01,41,17.70
2015,08,12,01,42,17.70
2015,08,12,01,43,17.70
2015,08,12,01,44,17.70
2015,08,12,01,45,17.60
2015,08,12,01,46,17.60
2015,08,12,01,47,17.60
2015,08,12,01,48,17.60
2015,08,12,01,49,17.60
2015,08,12,01,50,17.60
2015,08,12,01,51,17.60
2015,08,12,01,52,17.60
2015,08,12,01,53,17.50
2015,08,12,01,54,17.50
2015,08,12,01,55,17.40
2015,08,12,01,56,17.40
2015,08,12,01,57,17.40
2015,08,12,01,58,17.30
2015,08,12,01,59,17.30
2015,08,12,02,00,17.30
2015,08,12,02,01,17.30
2015,08,12,02,02,17.30
2015,08,12,02,03,17.20
2015,08,12,02,04,17.20
2015,08,12,02,05,17.20
2015,08,12,02,06,17.20
2015,08,12,02,07,17.20
2015,08,12,02,08,17.30
2015,08,12,02,09,17.20
2015,08,12,02,10,17.20
2015,08,12,02,11,17.20
2015,08,12,02,12,17.20
2015,08,12,02,13,17.20
2015,08,12,02,14,17.20
2015,08,12,02,15,17.20
2015,08,12,02,16,17.10
2015,08,12,02,17,17.10
2015,08,12,02,18,17.10
2015,08,12,02,19,17.10
2015,08,12,02,20,17.10
2015,08,12,02,21,17.00
2015,08,12,02,22,17.00
2015,08,12,02,23,17.00
2015,08,12,02,24,17.00
2015,08,12,02,25,16.90
2015,08,12,02,26,16.90
2015,08,12,02,27,16.90
2015,08,12,02,28,16.80
2015,08,12,02,29,16.80
2015,08,12,02,30,16.80
2015,08,12,02,31,16.80
2015,08,12,02,32,16.80
2015,08,12,02,33,16.80
2015,08,12,02,34,16.80
2015,08,12,02,35,16.80
2015,08,12,02,36,16.90
2015,08,12,02,37,16.90
2015,08,12,02,38,16.90
2015,08,12,02,39,16.90
2015,08,12,02,40,16.90
2015,08,12,02,41,16.90
2015,08,12,02,42,16.90
2015,08,12,02,43,16.90
2015,08,12,02,44,16.80
2015,08,12,02,45,16.80
2015,08,12,02,46,16.80
2015,08,12,02,47,16.80
2015,08,12,02,48,16.80
2015,08,12,02,49,16.70
2015,08,12,02,50,16.70
2015,08,12,02,51,16.70
2015,08,12,02,52,16.60
2015,08,12,02,53,16.60
2015,08,12,02,54,16.60
2015,08,12,02,55,16.60
2015,08,12,02,56,16.60
2015,08,12,02,57,16.50
2015,08,12,02,58,16.50
2015,08,12,02,59,16.50
2015,08,12,03,00,16.40
2015,08,12,03,01,16.40
2015,08,12,03,02,16.40
2015,08,12,03,03,16.40
2015,08,12,03,04,16.30
2015,08,12,03,05,16.30
2015,08,12,03,06,16.30
2015,08,12,03,07,16.30
2015,08,12,03,08,16.20
2015,08,12,03,09,16.20
2015,08,12,03,10,16.20
2015,08,12,03,11,16.10
2015,08,12,03,12,16.10
2015,08,12,03,13,16.10
2015,08,12,03,14,16.00
2015,08,12,03,15,16.00
2015,08,12,03,16,16.00
2015,08,12,03,17,15.90
2015,08,12,03,18,15.90
2015,08,12,03,19,15.90
2015,08,12,03,20,15.90
2015,08,12,03,21,15.90
2015,08,12,03,22,15.90
2015,08,12,03,23,15.90
2015,08,12,03,24,15.90
2015,08,12,03,25,15.90
2015,08,12,03,26,15.90
2015,08,12,03,27,15.90
2015,08,12,03,28,15.90
2015,08,12,03,29,15.90
2015,08,12,03,30,15.80
2015,08,12,03,31,15.80
2015,08,12,03,32,15.80
2015,08,12,03,33,15.80
2015,08,12,03,34,15.80
2015,08,12,03,35,15.80
2015,08,12,03,36,15.80
2015,08,12,03,37,15.80
2015,08,12,03,38,15.80
2015,08,12,03,39,15.80
2015,08,12,03,40,15.80
2015,08,12,03,41,15.80
2015,08,12,03,42,15.80
2015,08,12,03,43,15.80
2015,08,12,03,44,15.80
2015,08,12,03,45,15.80
2015,08,12,03,46,15.80
2015,08,12,03,47,15.80
2015,08,12,03,48,15.80
2015,08,12,03,49,15.80
2015,08,12,03,50,15.80
2015,08,12,03,51,15.80
2015,08,12,03,52,15.80
2015,08,12,03,53,15.80
2015,08,12,03,54,15.90
2015,08,12,03,55,15.90
2015,08,12,03,56,15.90
2015,08,12,03,57,15.90
2015,08,12,03,58,15.90
2015,08,12,03,59,15.90
2015,08,12,04,00,15.90
2015,08,12,04,01,15.90
2015,08,12,04,02,15.80
2015,08,12,04,03,15.80
2015,08,12,04,04,15.80
2015,08,12,04,05,15.80
2015,08,12,04,06,15.80
2015,08,12,04,07,15.70
2015,08,12,04,08,15.70
2015,08,12,04,09,15.70
2015,08,12,04,10,15.70
2015,08,12,04,11,15.60
2015,08,12,04,12,15.60
2015,08,12,04,13,15.60
2015,08,12,04,14,15.60
2015,08,12,04,15,15.50
2015,08,12,04,16,15.50
2015,08,12,04,17,15.50
2015,08,12,04,18,15.50
2015,08,12,04,19,15.50
2015,08,12,04,20,15.40
2015,08,12,04,21,15.40
2015,08,12,04,22,15.40
2015,08,12,04,23,15.40
2015,08,12,04,24,15.40
2015,08,12,04,25,15.40
2015,08,12,04,26,15.40
2015,08,12,04,27,15.30
2015,08,12,04,28,15.30
2015,08,12,04,29,15.30
2015,08,12,04,30,15.30
2015,08,12,04,31,15.30
2015,08,12,04,32,15.30
2015,08,12,04,33,15.30
2015,08,12,04,34,15.30
2015,08,12,04,35,15.20
2015,08,12,04,36,15.20
2015,08,12,04,37,15.20
2015,08,12,04,38,15.20
2015,08,12,04,39,15.20
2015,08,12,04,40,15.10
2015,08,12,04,41,15.10
2015,08,12,04,42,15.10
2015,08,12,04,43,15.10
2015,08,12,04,44,15.10
2015,08,12,04,45,15.10
2015,08,12,04,46,15.10
2015,08,12,04,47,15.10
2015,08,12,04,48,15.10
2015,08,12,04,49,15.10
2015,08,12,04,50,15.10
2015,08,12,04,51,15.10
2015,08,12,04,52,15.10
2015,08,12,04,53,15.20
2015,08,12,04,54,15.20
2015,08,12,04,55,15.20
2015,08,12,04,56,15.20
2015,08,12,04,57,15.20
2015,08,12,04,58,15.20
2015,08,12,04,59,15.20
2015,08,12,05,00,15.20
2015,08,12,05,01,15.20
2015,08,12,05,02,15.20
2015,08,12,05,03,15.20
2015,08,12,05,04,15.20
2015,08,12,05,05,15.20
2015,08,12,05,06,15.20
2015,08,12,05,07,15.20
2015,08,12,05,08,15.20
2015,08,12,05,09,15.20
2015,08,12,05,10,15.20
2015,08,12,05,11,15.20
2015,08,12,05,12,15.20
2015,08,12,05,13,15.20
2015,08,12,05,14,15.20
2015,08,12,05,15,15.10
2015,08,12,05,16,15.10
2015,08,12,05,17,15.10
2015,08,12,05,18,15.10
2015,08,12,05,19,15.00
2015,08,12,05,20,15.00
2015,08,12,05,21,15.00
2015,08,12,05,22,14.90
2015,08,12,05,23,14.90
2015,08,12,05,24,14.90
2015,08,12,05,25,14.90
2015,08,12,05,26,14.90
2015,08,12,05,27,14.80
2015,08,12,05,28,14.80
2015,08,12,05,29,14.80
2015,08,12,05,30,14.80
2015,08,12,05,31,14.80
2015,08,12,05,32,14.90
2015,08,12,05,33,14.90
2015,08,12,05,34,14.80
2015,08,12,05,35,14.80
2015,08,12,05,36,14.80
2015,08,12,05,37,14.80
2015,08,12,05,38,14.80
2015,08,12,05,39,14.80
2015,08,12,05,40,14.80
2015,08,12,05,41,14.70
2015,08,12,05,42,14.70
2015,08,12,05,43,14.70
2015,08,12,05,44,14.70
2015,08,12,05,45,14.70
2015,08,12,05,46,14.70
2015,08,12,05,47,14.70
2015,08,12,05,48,14.70
2015,08,12,05,49,14.70
2015,08,12,05,50,14.70
2015,08,12,05,51,14.70
2015,08,12,05,52,14.70
2015,08,12,05,53,14.70
2015,08,12,05,54,14.70
2015,08,12,05,55,14.70
2015,08,12,05,56,14.70
2015,08,12,05,57,14.70
2015,08,12,05,58,14.70
2015,08,12,05,59,14.80
2015,08,12,06,00,14.80
2015,08,12,06,01,14.80
2015,08,12,06,02,14.80
2015,08,12,06,03,14.70
2015,08,12,06,04,14.70
2015,08,12,06,05,14.70
2015,08,12,06,06,14.60
2015,08,12,06,07,14.60
2015,08,12,06,08,14.60
2015,08,12,06,09,14.60
2015,08,12,06,10,14.50
2015,08,12,06,11,14.50
2015,08,12,06,12,14.50
2015,08,12,06,13,14.50
2015,08,12,06,14,14.50
2015,08,12,06,15,14.50
2015,08,12,06,16,14.50
2015,08,12,06,17,14.60
2015,08,12,06,18,14.60
2015,08,12,06,19,14.60
2015,08,12,06,20,14.50
2015,08,12,06,21,14.50
2015,08,12,06,22,14.50
2015,08,12,06,23,14.50
2015,08,12,06,24,14.50
2015,08,12,06,25,14.40
2015,08,12,06,26,14.40
2015,08,12,06,27,14.40
2015,08,12,06,28,14.40
2015,08,12,06,29,14.40
2015,08,12,06,30,14.40
2015,08,12,06,31,14.40
2015,08,12,06,32,14.40
2015,08,12,06,33,14.40
2015,08,12,06,34,14.50
2015,08,12,06,35,14.50
2015,08,12,06,36,14.50
2015,08,12,06,37,14.60
2015,08,12,06,38,14.60
2015,08,12,06,39,14.60
2015,08,12,06,40,14.60
2015,08,12,06,41,14.60
2015,08,12,06,42,14.60
2015,08,12,06,43,14.60
2015,08,12,06,44,14.50
2015,08,12,06,45,14.50
2015,08,12,06,46,14.50
2015,08,12,06,47,14.50
2015,08,12,06,48,14.50
2015,08,12,06,49,14.50
2015,08,12,06,50,14.60
2015,08,12,06,51,14.60
2015,08,12,06,52,14.60
2015,08,12,06,53,14.60
2015,08,12,06,54,14.60
2015,08,12,06,55,14.60
2015,08,12,06,56,14.60
2015,08,12,06,57,14.60
2015,08,12,06,58,14.60
2015,08,12,06,59,14.60
2015,08,12,07,00,14.60
2015,08,12,07,01,14.60
2015,08,12,07,02,14.70
2015,08,12,07,03,14.70
2015,08,12,07,04,14.70
2015,08,12,07,05,14.70
2015,08,12,07,06,14.70
2015,08,12,07,07,14.80
2015,08,12,07,08,14.80
2015,08,12,07,09,14.90
2015,08,12,07,10,14.90
2015,08,12,07,11,15.00
2015,08,12,07,12,15.10
2015,08,12,07,13,15.10
2015,08,12,07,14,15.20
2015,08,12,07,15,15.20
2015,08,12,07,16,15.20
2015,08,12,07,17,15.20
2015,08,12,07,18,15.20
2015,08,12,07,19,15.20
2015,08,12,07,20,15.20
2015,08,12,07,21,15.20
2015,08,12,07,22,15.30
2015,08,12,07,23,15.30
2015,08,12,07,24,15.30
2015,08,12,07,25,15.30
2015,08,12,07,26,15.40
2015,08,12,07,27,15.40
2015,08,12,07,28,15.40
2015,08,12,07,29,15.40
2015,08,12,07,30,15.40
2015,08,12,07,31,15.40
2015,08,12,07,32,15.40
2015,08,12,07,33,15.40
2015,08,12,07,34,15.40
2015,08,12,07,35,15.50
2015,08,12,07,36,15.50
2015,08,12,07,37,15.60
2015,08,12,07,38,15.60
2015,08,12,07,39,15.70
2015,08,12,07,40,15.70
2015,08,12,07,41,15.70
2015,08,12,07,42,15.70
2015,08,12,07,43,15.80
2015,08,12,07,44,15.80
2015,08,12,07,45,15.80
2015,08,12,07,46,15.90
2015,08,12,07,47,15.90
2015,08,12,07,48,16.00
2015,08,12,07,49,16.00
2015,08,12,07,50,16.10
2015,08,12,07,51,16.20
2015,08,12,07,52,16.30
2015,08,12,07,53,16.40
2015,08,12,07,54,16.40
2015,08,12,07,55,16.50
2015,08,12,07,56,16.60
2015,08,12,07,57,16.70
2015,08,12,07,58,16.90
2015,08,12,07,59,17.00
2015,08,12,08,00,17.10
2015,08,12,08,01,17.20
2015,08,12,08,02,17.30
2015,08,12,08,03,17.40
2015,08,12,08,04,17.50
2015,08,12,08,05,17.50
2015,08,12,08,06,17.60
2015,08,12,08,07,17.70
2015,08,12,08,08,17.70
2015,08,12,08,09,17.80
2015,08,12,08,10,17.80
2015,08,12,08,11,17.90
2015,08,12,08,12,18.00
2015,08,12,08,13,18.10
2015,08,12,08,14,18.10
2015,08,12,08,15,18.20
2015,08,12,08,16,18.30
2015,08,12,08,17,18.40
2015,08,12,08,18,18.50
2015,08,12,08,19,18.60
2015,08,12,08,20,18.60
2015,08,12,08,21,18.70
2015,08,12,08,22,18.80
2015,08,12,08,23,18.80
2015,08,12,08,24,18.90
2015,08,12,08,25,19.00
2015,08,12,08,26,19.10
2015,08,12,08,27,19.10
2015,08,12,08,28,19.20
2015,08,12,08,29,19.30
2015,08,12,08,30,19.40
2015,08,12,08,31,19.50
2015,08,12,08,32,19.60
2015,08,12,08,33,19.70
2015,08,12,08,34,19.80
2015,08,12,08,35,19.90
2015,08,12,08,36,20.00
2015,08,12,08,37,20.10
2015,08,12,08,38,20.20
2015,08,12,08,39,20.30
2015,08,12,08,40,20.40
2015,08,12,08,41,20.50
2015,08,12,08,42,20.60
2015,08,12,08,43,20.70
2015,08,12,08,44,20.70
2015,08,12,08,45,20.80
2015,08,12,08,46,20.80
2015,08,12,08,47,20.90
2015,08,12,08,48,20.90
2015,08,12,08,49,20.90
2015,08,12,08,50,21.00
2015,08,12,08,51,21.00
2015,08,12,08,52,21.10
2015,08,12,08,53,21.10
2015,08,12,08,54,21.10
2015,08,12,08,55,21.20
2015,08,12,08,56,21.20
2015,08,12,08,57,21.30
2015,08,12,08,58,21.30
2015,08,12,08,59,21.40
2015,08,12,09,00,21.50
2015,08,12,09,01,21.50
2015,08,12,09,02,21.60
2015,08,12,09,03,21.60
2015,08,12,09,04,21.70
2015,08,12,09,05,21.70
2015,08,12,09,06,21.80
2015,08,12,09,07,21.80
2015,08,12,09,08,21.90
2015,08,12,09,09,21.90
2015,08,12,09,10,22.00
2015,08,12,09,11,22.10
2015,08,12,09,12,22.30
2015,08,12,09,13,22.40
2015,08,12,09,14,22.60
2015,08,12,09,15,22.80
2015,08,12,09,16,23.00
2015,08,12,09,17,23.30
2015,08,12,09,18,23.50
2015,08,12,09,19,23.70
2015,08,12,09,20,23.90
2015,08,12,09,21,24.00
2015,08,12,09,22,24.20
2015,08,12,09,23,24.30
2015,08,12,09,24,24.30
2015,08,12,09,25,24.40
2015,08,12,09,26,24.50
2015,08,12,09,27,24.50
2015,08,12,09,28,24.60
2015,08,12,09,29,24.70
2015,08,12,09,30,24.80
2015,08,12,09,31,24.80
2015,08,12,09,32,24.80
2015,08,12,09,33,24.90
2015,08,12,09,34,25.00
2015,08,12,09,35,25.10
2015,08,12,09,36,25.10
2015,08,12,09,37,25.10
2015,08,12,09,38,25.00
2015,08,12,09,39,24.90
2015,08,12,09,40,24.90
2015,08,12,09,41,25.00
2015,08,12,09,42,24.90
2015,08,12,09,43,25.00
2015,08,12,09,44,25.00
2015,08,12,09,45,25.10
2015,08,12,09,46,25.10
2015,08,12,09,47,25.20
2015,08,12,09,48,25.20
2015,08,12,09,49,25.10
2015,08,12,09,50,25.10
2015,08,12,09,51,25.10
2015,08,12,09,52,25.10
2015,08,12,09,53,25.00
2015,08,12,09,54,25.00
2015,08,12,09,55,24.90
2015,08,12,09,56,24.90
2015,08,12,09,57,24.80
2015,08,12,09,58,24.80
2015,08,12,09,59,24.90
2015,08,12,10,00,25.00
2015,08,12,10,01,25.10
2015,08,12,10,02,25.10
2015,08,12,10,03,25.00
2015,08,12,10,04,24.90
2015,08,12,10,05,24.90
2015,08,12,10,06,24.90
2015,08,12,10,07,24.90
2015,08,12,10,08,24.80
2015,08,12,10,09,24.80
2015,08,12,10,10,24.80
2015,08,12,10,11,24.90
2015,08,12,10,12,24.90
2015,08,12,10,13,25.00
2015,08,12,10,14,25.10
2015,08,12,10,15,25.20
2015,08,12,10,16,25.30
2015,08,12,10,17,25.40
2015,08,12,10,18,25.50
2015,08,12,10,19,25.60
2015,08,12,10,20,25.60
2015,08,12,10,21,25.70
2015,08,12,10,22,25.70
2015,08,12,10,23,25.70
2015,08,12,10,24,25.60
2015,08,12,10,25,25.60
2015,08,12,10,26,25.50
2015,08,12,10,27,25.50
2015,08,12,10,28,25.60
2015,08,12,10,29,25.60
2015,08,12,10,30,25.70
2015,08,12,10,31,25.60
2015,08,12,10,32,25.60
2015,08,12,10,33,25.70
2015,08,12,10,34,25.70
2015,08,12,10,35,25.80
2015,08,12,10,36,25.90
2015,08,12,10,37,26.00
2015,08,12,10,38,26.10
2015,08,12,10,39,26.00
2015,08,12,10,40,26.00
2015,08,12,10,41,25.80
2015,08,12,10,42,25.70
2015,08,12,10,43,25.60
2015,08,12,10,44,25.50
2015,08,12,10,45,25.50
2015,08,12,10,46,25.40
2015,08,12,10,47,25.30
2015,08,12,10,48,25.10
2015,08,12,10,49,25.00
2015,08,12,10,50,24.90
2015,08,12,10,51,24.80
2015,08,12,10,52,24.70
2015,08,12,10,53,24.70
2015,08,12,10,54,24.60
2015,08,12,10,55,24.50
2015,08,12,10,56,24.40
2015,08,12,10,57,24.30
2015,08,12,10,58,24.30
2015,08,12,10,59,24.30
2015,08,12,11,00,24.30
2015,08,12,11,01,24.30
2015,08,12,11,02,24.20
2015,08,12,11,03,24.20
2015,08,12,11,04,24.10
2015,08,12,11,05,24.10
2015,08,12,11,06,24.00
2015,08,12,11,07,23.90
2015,08,12,11,08,23.70
2015,08,12,11,09,23.50
2015,08,12,11,10,23.40
2015,08,12,11,11,23.40
2015,08,12,11,12,23.40
2015,08,12,11,13,23.40
2015,08,12,11,14,23.40
2015,08,12,11,15,23.40
2015,08,12,11,16,23.40
2015,08,12,11,17,23.40
2015,08,12,11,18,23.40
2015,08,12,11,19,23.50
2015,08,12,11,20,23.60
2015,08,12,11,21,23.70
2015,08,12,11,22,23.80
2015,08,12,11,23,23.80
2015,08,12,11,24,23.90
2015,08,12,11,25,24.00
2015,08,12,11,26,24.20
2015,08,12,11,27,24.30
2015,08,12,11,28,24.30
2015,08,12,11,29,24.30
2015,08,12,11,30,24.20
2015,08,12,11,31,24.20
2015,08,12,11,32,24.20
2015,08,12,11,33,24.30
2015,08,12,11,34,24.30
2015,08,12,11,35,24.40
2015,08,12,11,36,24.40
2015,08,12,11,37,24.50
2015,08,12,11,38,24.60
2015,08,12,11,39,24.70
2015,08,12,11,40,24.70
2015,08,12,11,41,24.70
2015,08,12,11,42,24.60
2015,08,12,11,43,24.60
2015,08,12,11,44,24.60
2015,08,12,11,45,24.50
2015,08,12,11,46,24.40
2015,08,12,11,47,24.40
2015,08,12,11,48,24.40
2015,08,12,11,49,24.40
2015,08,12,11,50,24.30
2015,08,12,11,51,24.20
2015,08,12,11,52,24.20
2015,08,12,11,53,24.20
2015,08,12,11,54,24.10
2015,08,12,11,55,24.20
2015,08,12,11,56,24.20
2015,08,12,11,57,24.10
2015,08,12,11,58,24.10
2015,08,12,11,59,24.10
2015,08,12,12,00,24.00
2015,08,12,12,01,24.00
2015,08,12,12,02,23.90
2015,08,12,12,03,23.90
2015,08,12,12,04,23.90
2015,08,12,12,05,23.90
2015,08,12,12,06,23.90
2015,08,12,12,07,24.00
2015,08,12,12,08,24.00
2015,08,12,12,09,24.10
2015,08,12,12,10,24.10
2015,08,12,12,11,24.10
2015,08,12,12,12,24.10
2015,08,12,12,13,24.20
2015,08,12,12,14,24.20
2015,08,12,12,15,24.20
2015,08,12,12,16,24.30
2015,08,12,12,17,24.40
2015,08,12,12,18,24.40
2015,08,12,12,19,24.40
2015,08,12,12,20,24.40
2015,08,12,12,21,24.50
2015,08,12,12,22,24.60
2015,08,12,12,23,24.70
2015,08,12,12,24,24.70
2015,08,12,12,25,24.80
2015,08,12,12,26,24.80
2015,08,12,12,27,24.90
2015,08,12,12,28,24.90
2015,08,12,12,29,25.00
2015,08,12,12,30,25.10
2015,08,12,12,31,25.10
2015,08,12,12,32,25.10
2015,08,12,12,33,25.20
2015,08,12,12,34,25.20
2015,08,12,12,35,25.30
2015,08,12,12,36,25.30
2015,08,12,12,37,25.30
2015,08,12,12,38,25.30
2015,08,12,12,39,25.30
2015,08,12,12,40,25.30
2015,08,12,12,41,25.30
2015,08,12,12,42,25.30
2015,08,12,12,43,25.40
2015,08,12,12,44,25.40
2015,08,12,12,45,25.40
2015,08,12,12,46,25.50
2015,08,12,12,47,25.50
2015,08,12,12,48,25.60
2015,08,12,12,49,25.60
2015,08,12,12,50,25.70
2015,08,12,12,51,25.70
2015,08,12,12,52,25.70
2015,08,12,12,53,25.70
2015,08,12,12,54,25.70
2015,08,12,12,55,25.70
2015,08,12,12,56,25.70
2015,08,12,12,57,25.70
2015,08,12,12,58,25.70
2015,08,12,12,59,25.70
2015,08,12,13,00,25.70
2015,08,12,13,01,25.70
2015,08,12,13,02,25.80
2015,08,12,13,03,25.90
2015,08,12,13,04,26.00
2015,08,12,13,05,26.10
2015,08,12,13,06,26.20
2015,08,12,13,07,26.30
2015,08,12,13,08,26.40
2015,08,12,13,09,26.50
2015,08,12,13,10,26.50
2015,08,12,13,11,26.60
2015,08,12,13,12,26.70
2015,08,12,13,13,26.80
2015,08,12,13,14,26.90
2015,08,12,13,15,27.00
2015,08,12,13,16,27.10
2015,08,12,13,17,27.30
2015,08,12,13,18,27.40
2015,08,12,13,19,27.50
2015,08,12,13,20,27.60
2015,08,12,13,21,27.80
2015,08,12,13,22,27.90
2015,08,12,13,23,28.00
2015,08,12,13,24,28.10
2015,08,12,13,25,28.20
2015,08,12,13,26,28.40
2015,08,12,13,27,28.40
2015,08,12,13,28,28.50
2015,08,12,13,29,28.60
2015,08,12,13,30,28.60
2015,08,12,13,31,28.70
2015,08,12,13,32,28.70
2015,08,12,13,33,28.80
2015,08,12,13,34,28.80
2015,08,12,13,35,28.80
2015,08,12,13,36,28.90
2015,08,12,13,37,29.00
2015,08,12,13,38,29.10
2015,08,12,13,39,29.20
2015,08,12,13,40,29.30
2015,08,12,13,41,29.50
2015,08,12,13,42,29.70
2015,08,12,13,43,29.90
2015,08,12,13,44,30.00
2015,08,12,13,45,30.10
2015,08,12,13,46,30.00
2015,08,12,13,47,30.00
2015,08,12,13,48,29.90
2015,08,12,13,49,30.00
2015,08,12,13,50,30.00
2015,08,12,13,51,30.10
2015,08,12,13,52,30.20
2015,08,12,13,53,30.20
2015,08,12,13,54,30.20
2015,08,12,13,55,30.30
2015,08,12,13,56,30.30
2015,08,12,13,57,30.30
2015,08,12,13,58,30.40
2015,08,12,13,59,30.50
2015,08,12,14,00,30.70
2015,08,12,14,01,30.90
2015,08,12,14,02,31.10
2015,08,12,14,03,31.20
2015,08,12,14,04,31.30
2015,08,12,14,05,31.40
2015,08,12,14,06,31.50
2015,08,12,14,07,31.50
2015,08,12,14,08,31.50
2015,08,12,14,09,31.40
2015,08,12,14,10,31.20
2015,08,12,14,11,31.10
2015,08,12,14,12,31.00
2015,08,12,14,13,30.90
2015,08,12,14,14,30.90
2015,08,12,14,15,30.90
2015,08,12,14,16,30.80
2015,08,12,14,17,30.70
2015,08,12,14,18,30.70
2015,08,12,14,19,30.80
2015,08,12,14,20,30.80
2015,08,12,14,21,30.90
2015,08,12,14,22,30.90
2015,08,12,14,23,30.90
2015,08,12,14,24,30.80
2015,08,12,14,25,30.70
2015,08,12,14,26,30.70
2015,08,12,14,27,30.70
2015,08,12,14,28,30.60
2015,08,12,14,29,30.40
2015,08,12,14,30,30.30
2015,08,12,14,31,30.20
2015,08,12,14,32,30.10
2015,08,12,14,33,30.00
2015,08,12,14,34,29.90
2015,08,12,14,35,29.80
2015,08,12,14,36,29.80
2015,08,12,14,37,29.80
2015,08,12,14,38,29.70
2015,08,12,14,39,29.60
2015,08,12,14,40,29.60
2015,08,12,14,41,29.50
2015,08,12,14,42,29.40
2015,08,12,14,43,29.30
2015,08,12,14,44,29.20
2015,08,12,14,45,29.00
2015,08,12,14,46,29.00
2015,08,12,14,47,29.00
2015,08,12,14,48,29.00
2015,08,12,14,49,29.00
2015,08,12,14,50,29.00
2015,08,12,14,51,29.00
2015,08,12,14,52,29.00
2015,08,12,14,53,29.00
2015,08,12,14,54,29.10
2015,08,12,14,55,29.10
2015,08,12,14,56,29.20
2015,08,12,14,57,29.20
2015,08,12,14,58,29.30
2015,08,12,14,59,29.40
2015,08,12,15,00,29.40
2015,08,12,15,01,29.40
2015,08,12,15,02,29.50
2015,08,12,15,03,29.70
2015,08,12,15,04,29.80
2015,08,12,15,05,29.90
2015,08,12,15,06,29.90
2015,08,12,15,07,29.90
2015,08,12,15,08,29.90
2015,08,12,15,09,30.00
2015,08,12,15,10,30.00
2015,08,12,15,11,30.00
2015,08,12,15,12,29.90
2015,08,12,15,13,29.90
2015,08,12,15,14,29.80
2015,08,12,15,15,29.80
2015,08,12,15,16,29.70
2015,08,12,15,17,29.70
2015,08,12,15,18,29.70
2015,08,12,15,19,29.70
2015,08,12,15,20,29.70
2015,08,12,15,21,29.80
2015,08,12,15,22,29.80
2015,08,12,15,23,29.90
2015,08,12,15,24,30.00
2015,08,12,15,25,30.10
2015,08,12,15,26,30.20
2015,08,12,15,27,30.20
2015,08,12,15,28,30.20
2015,08,12,15,29,30.30
2015,08,12,15,30,30.30
2015,08,12,15,31,30.30
2015,08,12,15,32,30.30
2015,08,12,15,33,30.30
2015,08,12,15,34,30.30
2015,08,12,15,35,30.30
2015,08,12,15,36,30.30
2015,08,12,15,37,30.30
2015,08,12,15,38,30.40
2015,08,12,15,39,30.40
2015,08,12,15,40,30.30
2015,08,12,15,41,30.30
2015,08,12,15,42,30.20
2015,08,12,15,43,30.20
2015,08,12,15,44,30.20
2015,08,12,15,45,30.30
2015,08,12,15,46,30.30
2015,08,12,15,47,30.30
2015,08,12,15,48,30.30
2015,08,12,15,49,30.30
2015,08,12,15,50,30.40
2015,08,12,15,51,30.50
2015,08,12,15,52,30.50
2015,08,12,15,53,30.60
2015,08,12,15,54,30.50
2015,08,12,15,55,30.50
2015,08,12,15,56,30.40
2015,08,12,15,57,30.30
2015,08,12,15,58,30.20
2015,08,12,15,59,30.10
2015,08,12,16,00,30.10
2015,08,12,16,01,30.20
2015,08,12,16,02,30.20
2015,08,12,16,03,30.20
2015,08,12,16,04,30.10
2015,08,12,16,05,30.10
2015,08,12,16,06,30.10
2015,08,12,16,07,29.90
2015,08,12,16,08,29.90
2015,08,12,16,09,29.90
2015,08,12,16,10,30.00
2015,08,12,16,11,30.00
2015,08,12,16,12,30.00
2015,08,12,16,13,30.10
2015,08,12,16,14,30.10
2015,08,12,16,15,30.10
2015,08,12,16,16,30.20
2015,08,12,16,17,30.30
2015,08,12,16,18,30.30
2015,08,12,16,19,30.30
2015,08,12,16,20,30.40
2015,08,12,16,21,30.40
2015,08,12,16,22,30.40
2015,08,12,16,23,30.50
2015,08,12,16,24,30.50
2015,08,12,16,25,30.60
2015,08,12,16,26,30.60
2015,08,12,16,27,30.60
2015,08,12,16,28,30.60
2015,08,12,16,29,30.60
2015,08,12,16,30,30.60
2015,08,12,16,31,30.70
2015,08,12,16,32,30.80
2015,08,12,16,33,30.80
2015,08,12,16,34,30.90
2015,08,12,16,35,31.00
2015,08,12,16,36,31.10
2015,08,12,16,37,31.10
2015,08,12,16,38,31.10
2015,08,12,16,39,31.10
2015,08,12,16,40,31.20
2015,08,12,16,41,31.30
2015,08,12,16,42,31.10
2015,08,12,16,43,30.80
2015,08,12,16,44,30.40
2015,08,12,16,45,30.10
2015,08,12,16,46,29.80
2015,08,12,16,47,29.50
2015,08,12,16,48,29.20
2015,08,12,16,49,28.90
2015,08,12,16,50,28.80
2015,08,12,16,51,28.60
2015,08,12,16,52,28.50
2015,08,12,16,53,28.30
2015,08,12,16,54,28.10
2015,08,12,16,55,28.00
2015,08,12,16,56,28.00
2015,08,12,16,57,27.90
2015,08,12,16,58,27.90
2015,08,12,16,59,27.80
2015,08,12,17,00,27.60
2015,08,12,17,01,27.30
2015,08,12,17,02,27.10
2015,08,12,17,03,26.90
2015,08,12,17,04,26.70
2015,08,12,17,05,26.50
2015,08,12,17,06,26.40
2015,08,12,17,07,26.30
2015,08,12,17,08,26.20
2015,08,12,17,09,26.20
2015,08,12,17,10,26.10
2015,08,12,17,11,26.10
2015,08,12,17,12,26.10
2015,08,12,17,13,26.10
2015,08,12,17,14,26.10
2015,08,12,17,15,26.10
2015,08,12,17,16,26.00
2015,08,12,17,17,26.00
2015,08,12,17,18,26.00
2015,08,12,17,19,26.10